Cloud_Cover
1 0 0 0 83 0 0 14 67 26 1 0 3 1 0 0 5 5 10 100 100 100 100 100 100 88 100 100 100 100 100 90 26 90 98 100 65 3 0 0 0 0 5
0 0 0 0 36 0 1 10 100 99 0 0 0 0 0 0 0 5 5 40 100 100 100 94 90 100 95 100 100 100 100 70 32 7 29 100 25 5 0 0 0 0 0
0 0 0 0 1 5 5 5 18 12 37 98 20 1 0 0 0 3 37 66 6 99 100 88 58 96 100 97 100 100 100 100 100 100 75 100 15 7 0 0 0 0 0
0 0 0 0 0 2 5 5 9 39 100 100 100 100 78 0 0 0 5 5 80 62 100 52 100 100 87 100 100 100 100 100 49 100 97 33 5 50 0 0 0 0 0
0 0 0 0 0 0 5 5 58 85 100 100 100 100 100 5 5 4 5 5 72 37 99 96 15 83 96 86 100 100 100 100 100 100 95 94 14 5 0 0 0 0 0
0 0 0 8 0 4 68 5 36 91 100 100 97 100 100 6 47 38 5 27 100 100 7 65 47 37 35 100 100 100 100 100 100 20 94 88 100 97 0 0 0 0 5
0 0 0 0 0 16 88 100 100 100 100 100 100 81 70 100 100 100 53 10 54 13 55 17 37 71 57 100 100 100 100 100 100 78 100 100 100 100 44 2 0 0 0
0 0 0 0 0 0 0 1 100 100 100 100 100 100 62 72 85 100 86 34 6 86 31 15 79 65 100 100 100 100 100 100 92 100 100 82 100 100 97 1 0 0 0
0 0 0 0 0 0 0 0 100 100 100 100 100 100 91 23 96 99 99 72 61 100 98 62 69 95 100 100 100 100 86 95 76 100 90 96 75 100 100 5 0 0 0
80 14 0 0 0 0 0 0 61 100 100 100 100 100 100 38 72 55 98 97 67 94 100 47 83 96 100 100 100 100 100 86 100 100 97 95 100 100 100 11 5 5 1
0 32 0 0 0 0 0 18 46 100 100 100 100 100 100 100 79 99 57 50 5 35 100 100 66 100 100 100 100 100 83 100 100 100 88 100 100 13 92 84 65 5 5
0 1 19 9 2 4 11 33 42 98 100 100 100 100 100 96 62 64 99 94 54 68 99 100 100 100 100 100 100 100 79 100 100 91 100 90 100 100 100 100 100 35 19
0 0 14 67 47 82 91 97 99 100 100 100 100 100 100 85 31 44 43 100 42 87 63 97 100 100 100 100 79 73 98 100 100 100 86 98 99 100 12 88 100 77 18
0 0 36 100 100 78 38 59 32 100 100 100 100 100 100 100 100 70 55 100 53 62 61 100 91 100 100 100 100 87 99 100 91 100 100 100 100 100 99 94 100 57 14
0 0 0 48 54 15 25 13 96 100 100 100 100 100 100 100 100 52 74 99 99 50 35 52 57 81 100 100 100 100 99 100 72 89 100 100 98 100 99 99 99 13 95
0 0 8 46 30 25 75 78 100 100 100 100 100 100 100 86 90 100 100 100 100 83 92 50 10 5 19 100 100 81 99 100 100 100 100 71 100 100 100 100 100 5 19
0 0 0 61 38 70 56 100 100 100 100 99 99 100 100 100 100 100 100 100 100 71 68 62 24 0 3 6 23 100 100 100 100 95 100 100 100 100 100 100 92 48 100
0 4 2 0 0 31 94 87 100 100 100 95 63 92 99 100 100 100 100 100 100 100 100 100 36 0 3 5 5 5 79 100 94 100 95 100 100 100 100 100 99 94 46
0 0 0 0 0 22 56 100 100 100 100 76 41 56 100 100 100 100 100 100 100 100 100 100 88 30 5 5 6 19 5 29 96 100 100 56 100 100 100 100 100 100 73
0 0 0 0 1 0 4 100 98 100 100 89 73 16 54 100 100 100 100 100 100 100 100 100 100 95 31 6 5 37 5 5 8 95 87 43 46 100 100 100 100 100 100
98 12 10 5 0 0 0 0 48 100 100 100 96 13 86 82 100 83 80 99 90 28 79 85 100 100 97 52 34 67 5 5 5 5 5 49 74 99 100 100 100 100 100
100 98 37 7 20 0 0 0 0 33 100 100 100 93 100 92 53 100 40 5 5 5 97 43 100 94 100 95 29 84 20 5 5 11 36 12 97 84 88 100 100 100 100
100 100 54 12 0 16 3 0 7 1 88 100 35 47 99 96 74 62 44 4 1 5 70 95 26 95 92 100 100 100 94 6 53 81 48 19 57 66 57 26 13 5 36
100 100 100 38 92 83 10 0 4 67 55 94 100 16 14 95 73 97 67 42 28 33 54 100 84 80 79 100 100 100 93 95 61 61 83 14 46 78 7 86 100 88 100
100 100 100 99 43 57 39 5 0 0 26 38 5 21 8 5 82 100 95 46 60 61 41 42 43 52 97 96 63 78 100 100 100 85 59 14 31 27 22 84 100 100 99
100 100 100 100 100 66 19 5 5 0 0 0 1 72 26 8 5 5 6 70 96 64 42 16 15 8 24 17 32 26 100 100 66 100 100 100 100 100 100 74 33 26 92